Torna al catalogo

COSMOS 2251 DEB

AttivoLEO
NORAD 35015·DEBRIS·🇷🇺 Russia

Lanciato Jun 16, 1993 da Plesetsk Cosmodrome

Loading…

Prossimi Passaggi (prossime 24 ore)

TLE

AggiornatoSource: Space-Track

Epoca: Sep 13, 2026, 06:47 UTC

1 35015U 93036AGC 26256.28312148  .00001612  00000-0  42452-3 0  9995
2 35015  73.9450  78.2634 0073555 244.2707 291.0182 14.48310307694132

Traccia COSMOS 2251 DEB in tempo reale con AllMySat

Download on the App Store